Flag Weather past 2 weeks in Elmshorn, Schleswig-Holstein, Germany

Now
39 °F

Passing clouds.


Feels Like: 29 °F
Forecast: 33 / 39 °F
Wind: 20 mph from Southeast

Location: Hamburg-Fuhlsbuettel

Current Time: Nov 26, 2014 at 8:10:43 PM

Latest Report: Nov 26, 2014 at 7:20 PM


Visibility: N/A

Pressure: 30.09 "Hg

Humidity: 87%

Dew point: 36 °F

Location of ElmshornLocation

Historic Weather in Elmshorn — Graph

°F

Elmshorn temperature yesterday

Maximum temperature yesterday: 43 °F (at 12:20 AM)
Minimum temperature yesterday: 32 °F (at 5:20 AM)
Average temperature yesterday: 39 °F

Past Weeks' High & Low Weather Summary

 TemperatureHumidityPressure
High54 °F (Nov 14, 12:50 PM)100% (Nov 12, 5:50 AM)30.36 "Hg (Nov 12, 5:50 AM)
Low28 °F (Nov 21, 2:20 AM)76% (Nov 20, 1:20 PM)29.56 "Hg (Nov 16, 12:20 PM)
Average45 °F93%30.00 "Hg
* Reported Nov 11 6:20 PM — Nov 26 6:50 PM, Elmshorn, Weather by CustomWeather, © 2014

Note: Actual official high and low records may vary slightly from our data, if they occured in-between our weather recording intervals... More about our weather records

Advertising

Elmshorn weather history for previous 24 hours

 ConditionsComfort  
Time TempWeatherWind HumidityBarometerVisibility
6:50 PM
Nov 26
39 °FPassing clouds.15 mph87%30.12 "HgN/A
6:20 PM39 °FPassing clouds.16 mph87%30.12 "HgN/A
5:50 PM39 °FPassing clouds.15 mph87%30.12 "HgN/A
5:20 PM39 °FPassing clouds.12 mph87%30.12 "HgN/A
4:50 PM39 °FPassing clouds.13 mph87%30.12 "Hg6 mi
4:20 PM39 °FPassing clouds.15 mph87%30.12 "Hg6 mi
3:50 PM39 °FScattered clouds.15 mph87%30.12 "HgN/A
3:20 PM39 °FScattered clouds.16 mph87%30.12 "HgN/A
2:50 PM41 °FPassing clouds.14 mph81%30.12 "HgN/A
2:20 PM41 °FPassing clouds.14 mph81%30.12 "HgN/A
1:50 PM43 °FPassing clouds.15 mph76%30.15 "HgN/A
1:20 PM43 °FPassing clouds.15 mph81%30.15 "HgN/A
12:50 PM41 °FPassing clouds.15 mph87%30.15 "HgN/A
12:20 PM41 °FPartly sunny.13 mph87%30.18 "HgN/A
11:50 AM41 °FPartly sunny.14 mph87%30.18 "HgN/A
11:20 AM41 °FPartly sunny.14 mph87%30.18 "HgN/A
10:20 AM39 °FPartly sunny.13 mph93%30.21 "HgN/A
9:50 AM39 °FPartly sunny.14 mph93%30.21 "HgN/A
9:20 AM39 °FPartly sunny.13 mph93%30.21 "HgN/A
8:50 AM39 °FPartly sunny.13 mph93%30.21 "HgN/A
8:20 AM39 °FPartly sunny.15 mph93%30.21 "HgN/A
7:50 AM39 °FPassing clouds.13 mph93%30.21 "HgN/A
7:20 AM37 °FPassing clouds.13 mph100%30.21 "HgN/A
6:50 AM37 °FPassing clouds.9 mph100%30.21 "HgN/A
6:20 AM37 °FFog.8 mph100%30.21 "HgN/A
5:50 AM37 °FFog.10 mph100%30.24 "Hg4 mi
5:20 AM37 °FFog.10 mph100%30.24 "Hg3 mi
4:20 AM36 °FFog.10 mph100%30.24 "Hg3 mi
3:50 AM36 °FFog.9 mph100%30.24 "Hg3 mi
3:20 AM36 °FFog.10 mph100%30.27 "Hg3 mi
2:50 AM36 °FFog.9 mph100%30.27 "Hg1 mi
2:20 AM36 °FFog.8 mph100%30.27 "Hg1 mi
1:50 AM36 °FFog.8 mph100%30.27 "Hg1 mi
1:20 AM36 °FFog.8 mph100%30.27 "Hg1 mi
12:50 AM36 °FFog.8 mph100%30.30 "Hg1 mi
12:20 AM36 °FFog.6 mph100%30.30 "Hg1 mi
11:50 PM
Nov 25
36 °FFog.8 mph100%30.30 "Hg1 mi
11:20 PM36 °FFog.6 mph100%30.30 "Hg1 mi
10:50 PM36 °FFog.5 mph100%30.30 "Hg1 mi
10:20 PM37 °FFog.5 mph100%30.30 "Hg1 mi
9:50 PM37 °FFog.5 mph100%30.30 "Hg1 mi
9:20 PM37 °FFog.6 mph100%30.33 "Hg1 mi
8:50 PM37 °FFog.6 mph100%30.33 "Hg1 mi
8:20 PM39 °FFog.3 mph100%30.33 "Hg1 mi
Weather by CustomWeather, © 2014

See weather overviewHow to use our weather pages